Location: La Fredeussais
(48.1780°N, 1.3980°W)
Time: 16:48:12
(UTC+00:00)

Cosmos 2228 Rocket - Pass Details

Date: 09 May 2021
Orbit: 618 x 652 km, 82.5° (Epoch: 24 June)

Event Time Altitude Azimuth Distance (km) Brightness Sun altitude
Exits shadow 22:39:26 38° 224° (SW) 963 3.8 -21.7°
Maximum altitude 22:40:52 57° 282° (WNW) 741 3.5 -21.8°
Drops below altitude 10° 22:45:18 10° 2° (N) 2,023 6.6 -22.0°
Sets 22:47:36 0° 7° (N) 2,942 7.6 -22.1°
